Flag for Canada Weather past 2 weeks in Resolute Bay, Nunavut, Canada

Now
41 °F

Sunny.


Feels Like: 31 °F
Forecast: 43 / 52 °F
Wind: 25 mph from East

Location: Resolute

Current Time: Jul 29, 2015 at 12:07:10 AM

Latest Report: Jul 28, 2015 at 11:00 PM


Visibility: 10 mi

Pressure: 30.01 "Hg

Humidity: 81%

Dew point: 36 °F

Location of Resolute BayLocation

Historic Weather in Resolute Bay — Graph

°F

Resolute Bay temperature yesterday

Maximum temperature yesterday: 50 °F (at 4:00 PM)
Minimum temperature yesterday: 39 °F (at 6:00 AM)
Average temperature yesterday: 45 °F

Past Weeks' High & Low Weather Summary

 TemperatureHumidityPressure
High63 °F (Jul 22, 3:00 PM)93% (Jul 14, 11:00 PM)30.23 "Hg (Jul 14, 11:00 PM)
Low36 °F (Jul 15, 1:00 AM)39% (Jul 25, 3:00 PM)29.85 "Hg (Jul 27, 5:00 AM)
Average49 °F69%30.04 "Hg
* Reported Jul 13 10:00 PM — Jul 28 10:00 PM, Resolute Bay, Weather by CustomWeather, © 2015

Note: Actual official high and low records may vary slightly from our data, if they occured in-between our weather recording intervals... More about our weather records

Advertising

Resolute Bay weather history for previous 24 hours

 ConditionsComfort  
Time TempWeatherWind HumidityBarometerVisibility
10:00 PM
Tue, Jul 28
45 °FSunny.21 mph76%30.02 "Hg10 mi
9:00 PM46 °FFog.15 mph71%30.02 "Hg10 mi
8:00 PM46 °FSunny.21 mph71%30.01 "Hg10 mi
7:00 PM46 °FSunny.18 mph71%30.00 "Hg10 mi
6:00 PM50 °FSunny.16 mph62%30.01 "Hg10 mi
5:00 PM50 °FSunny.21 mph62%30.00 "Hg10 mi
4:00 PM50 °FSunny.18 mph62%30.00 "Hg10 mi
3:00 PM48 °FFog.18 mph66%29.99 "Hg10 mi
2:00 PM48 °FPassing clouds.13 mph66%29.99 "Hg10 mi
1:00 PM48 °FPassing clouds.14 mph66%29.99 "Hg10 mi
12:00 PM48 °FPassing clouds.16 mph66%29.98 "Hg10 mi
11:00 AM45 °FPassing clouds.16 mph76%29.98 "Hg12 mi
10:00 AM45 °FPassing clouds.14 mph76%29.97 "Hg12 mi
9:00 AM43 °FScattered clouds.13 mph81%29.97 "Hg12 mi
8:00 AM43 °FBroken clouds.12 mph81%29.96 "Hg12 mi
7:00 AM43 °FMore clouds than sun.13 mph81%29.95 "Hg10 mi
6:00 AM39 °FFog.14 mph87%29.95 "Hg8 mi
5:00 AM41 °FPartly sunny.13 mph81%29.94 "Hg10 mi
4:00 AM41 °FMore clouds than sun.9 mph81%29.94 "Hg10 mi
3:00 AM43 °FOvercast.12 mph76%29.93 "Hg10 mi
2:00 AM43 °FOvercast.10 mph76%29.92 "Hg10 mi
1:00 AM43 °FOvercast.16 mph76%29.92 "Hg15 mi
12:00 AM43 °FOvercast.12 mph76%29.91 "Hg10 mi
Weather by CustomWeather, © 2015

See weather overviewHow to use our weather pages